Regional Weather Roundup
Issued by NWS

Home | Current Version | Previous Version | Text Only | Print | Product List | Glossary Off
Versions: 1 2 3 4 5 6 7 8 9 10 11 12 13 14 15 16 17 18 19 20 21 22 23 24 25 26 27 28 29 30 31 32 33 34 35 36 37 38 39 40 41 42 43 44 45 46 47 48 49 50

219
ASUS43 KOAX 271102
RWRNE

WEATHER ROUNDUP FOR NEBRASKA
NATIONAL WEATHER SERVICE OMAHA NE
600 AM CDT WED JUL 27 2016

NOTES: SATELLITE DATA IS BEING USED TO AUGMENT CLOUD COVER ABOVE
       12000 FEET.
       "FAIR" INDICATES FEW OR NO CLOUDS BELOW 12,000 FEET WITH NO
       SIGNIFICANT WEATHER AND/OR OBSTRUCTIONS TO VISIBILITY.

  * THESE STATIONS DO NOT REPORT WEATHER SUCH AS RAIN...SNOW OR FOG.

NEZ001>004-019>022-054>056-271200-
NEBRASKA PANHANDLE

CITY           SKY/WX    TMP DP  RH WIND       PRES   REMARKS
SCOTTSBLUFF    CLOUDY    64  58  80 E9        30.14R
ALLIANCE       MOCLDY    65  60  84 N6        30.16R
CHADRON        PTCLDY    66  60  81 N12       30.09R
SIDNEY         CLOUDY    63  59  87 SE14G23   30.16S
$$

NEZ057>060-069>072-079>082-271200-
SOUTHWEST NEBRASKA

CITY           SKY/WX    TMP DP  RH WIND       PRES   REMARKS
NORTH PLATTE   CLEAR     60  58  92 W6        30.10R
IMPERIAL       PTCLDY    61  58  90 CALM      30.13R
LEXINGTON      CLEAR     61  60  94 W6        30.03F
MCCOOK         CLOUDY    62  58  86 CALM      30.06F
OGALLALA       MOCLDY    62  58  86 CALM      30.14F
$$

NEZ005>010-023>029-035>040-094-271200-
NORTH CENTRAL NEBRASKA

CITY           SKY/WX    TMP DP  RH WIND       PRES   REMARKS
VALENTINE      PTCLDY    61  57  87 MISG      30.08R
BROKEN BOW     CLEAR     59  59 100 SW7       30.02R
O`NEILL        CLEAR     63  60  92 W6        29.96R
ORD            CLEAR     61  58  90 NW7       29.96S
THEDFORD       MOCLDY    62  59  90 W7        30.08R
$$

NEZ041-046>049-061>064-073>077-083>087-271200-
SOUTH CENTRAL NEBRASKA

CITY           SKY/WX    TMP DP  RH WIND       PRES   REMARKS
GRAND ISLAND   PTCLDY    67  58  72 W14       29.94R
AURORA         CLOUDY    69  58  68 W7        29.91R
HASTINGS       MOCLDY    64  60  87 W7        29.95F
HEBRON         CLOUDY    69  65  85 SE6       29.91F
HOLDREGE       PTCLDY    62  60  92 SW3       30.00S
KEARNEY *      CLOUDY    63   7  11 W7        29.98F
YORK           CLOUDY    66  59  77 SW6       29.91R
$$

NEZ011>018-030>034-042>045-271200-
NORTHEAST NEBRASKA

CITY           SKY/WX    TMP DP  RH WIND       PRES   REMARKS
NORFOLK        CLOUDY    68  66  93 N5        29.92R
ALBION         PTCLDY    63  60  93 NW9       29.92S
BLAIR          CLOUDY    71  66  85 S9G16     29.92F
FREMONT        CLOUDY    71  65  81 SE8       29.89S
TEKAMAH        CLOUDY    71  66  84 SE12      29.87F
WAYNE          LGT RAIN  68  67  96 NE8       29.92S
$$

NEZ050>053-065>068-078-088>093-271200-
SOUTHEAST NEBRASKA

CITY           SKY/WX    TMP DP  RH WIND       PRES   REMARKS
LINCOLN        MOCLDY    71  66  84 E9        29.90F
OMAHA EPPLEY   CLOUDY    73  66  78 SE16      29.90F
BEATRICE       MOCLDY    70  66  89 SE10      29.93F
FALLS CITY     MOCLDY    67  65  93 CALM      29.99F
NEBRASKA CITY  CLOUDY    67  67 100 S7        29.96F
PLATTSMOUTH    PTCLDY    69  67  94 SE9       29.93F
$$

NEZ044-045-051>053-067-271200-
OMAHA AREA

CITY           SKY/WX    TMP DP  RH WIND       PRES   REMARKS
OMAHA EPPLEY   CLOUDY    73  66  78 SE16      29.90F
BLAIR          CLOUDY    71  66  85 S9G16     29.92F
FREMONT        CLOUDY    71  65  81 SE8       29.89S
MILLARD        CLOUDY    71  67  87 SE5       29.92F
OFFUTT AFB     CLOUDY    69  69  98 E12       29.91F
PLATTSMOUTH    PTCLDY    69  67  94 SE9       29.93F
WAHOO          FAIR      68  65  91 SE7       29.89F
$$




USA.gov is the U.S. government's official web portal to all federal, state and local government web resources and services.